Location: Neuvy Saint Sepulchre
(46.5953°N, 1.8122°E)
Time: 11:05:29
(UTC+02:00)

ISS - Pass Details

Date: 18 March 2024
Orbit: 413 x 419 km, 51.6° (Epoch: 13 April)

Event Time Altitude Azimuth Distance (km) Brightness Sun altitude
Rises 19:43:04 0° 243° (WSW) 2,353 1.1 -7.7°
Reaches altitude 10° 19:45:09 10° 244° (WSW) 1,494 0.0 -8.0°
Maximum altitude 19:48:31 86° 330° (NNW) 426 -3.7 -8.6°
Drops below altitude 10° 19:51:54 10° 63° (ENE) 1,507 -1.4 -9.2°
Enters shadow 19:52:09 - 63° (ENE) 1,609 -1.3 -9.2°
